Location: UFOWorks Observatory
(42.1050°N, 72.2350°W)
Time: 23:26:54
(UTC-04:00)

ISS - Visible Passes

Search period start: 28 March 2017 00:00
Search period end: 07 April 2017 00:00
Orbit: 399 x 409 km, 51.6° (Epoch: 29 March)

Date Brightness Start Highest point End Pass type
(mag) Time Alt. Az. Time Alt. Az. Time Alt. Az.
28 Mar -2.5 19:33:43 10° S 19:36:23 24° SE 19:39:04 10° E visible
28 Mar -2.8 21:09:34 10° WSW 21:12:42 43° NNW 21:12:44 43° NNW visible
29 Mar -3.7 20:17:02 10° WSW 20:20:17 76° NNW 20:23:09 13° NE visible
29 Mar -0.7 21:54:40 10° WNW 21:55:50 16° NW 21:55:50 16° NW visible
30 Mar -1.8 21:01:47 10° W 21:04:35 26° NNW 21:06:01 19° NNE visible
31 Mar -2.4 20:08:59 10° W 20:12:02 37° NNW 20:15:07 10° NE visible
31 Mar -0.9 21:47:02 10° NW 21:48:42 16° NNW 21:48:42 16° NNW visible
01 Apr -1.3 20:54:07 10° WNW 20:56:31 19° NNW 20:58:35 12° NNE visible
02 Apr -1.6 20:01:11 10° WNW 20:03:52 23° NNW 20:06:35 10° NE visible
02 Apr -1.1 21:39:09 10° NW 21:41:00 15° N 21:41:00 15° N visible
03 Apr -1.2 20:46:23 10° NW 20:48:28 16° N 20:50:34 10° NE visible
03 Apr -0.2 22:23:15 10° NW 22:23:21 10° NW 22:23:21 10° NW visible
04 Apr -1.3 19:53:27 10° NW 19:55:45 17° N 19:58:03 10° NE visible
04 Apr -1.4 21:30:52 10° NW 21:32:59 17° N 21:32:59 17° N visible
05 Apr -1.3 20:38:19 10° NW 20:40:24 16° N 20:42:28 10° NE visible
05 Apr -0.5 22:14:39 10° NW 22:15:14 14° NW 22:15:14 14° NW visible
06 Apr -1.3 19:45:35 10° NW 19:47:38 15° N 19:49:41 10° NE visible
06 Apr -1.8 21:22:18 10° NW 21:24:49 22° NNE 21:24:49 22° NNE visible
